Location: De Platvoet
(52.2667°N, 6.1667°E)
Time: 11:16:28
(UTC+00:00)

Cosmos 2219 Rocket - Pass Details

Date: 15 May 2026
Orbit: 826 x 846 km, 71.0° (Epoch: 5 June)

Event Time Altitude Azimuth Distance (km) Brightness Sun altitude
Rises 20:12:54 0° 330° (NNW) 3,403 7.1 -6.7°
Reaches altitude 10° 20:15:31 10° 338° (NNW) 2,469 5.9 -7.0°
Maximum altitude 20:20:50 40° 47° (NE) 1,233 3.1 -7.6°
Drops below altitude 10° 20:26:08 10° 116° (ESE) 2,466 4.0 -8.1°
Enters shadow 20:26:30 - 118° (ESE) 2,596 4.1 -8.2°
